Timestamp, Local Timestamp, ID, PM25, PM10, Co2, Temperature, Relative Humidity, Monitor ID, O3
2022-03-30T23:17:53Z,03/30/22 19:17,7868882,4.07,0.013000000000000001,487,13.4,53.8,85,0.0
2022-03-30T23:18:53Z,03/30/22 19:18,7868892,4.611,0.015,479,13.4,55.3,85,0.0
2022-03-30T23:19:53Z,03/30/22 19:19,7868902,4.502000000000001,0.01,478,13.3,56.6,85,0.0
2022-03-30T23:20:53Z,03/30/22 19:20,7868912,4.378,0.017,480,13.3,57.5,85,3.0
2022-03-30T23:21:53Z,03/30/22 19:21,7868922,4.093999999999999,0.016,480,13.3,58.3,85,6.0
2022-03-30T23:22:53Z,03/30/22 19:22,7868932,4.34,0.007000000000000001,480,13.3,58.8,85,7.0
2022-03-30T23:23:53Z,03/30/22 19:23,7868942,4.74,0.015,480,13.3,59.5,85,13.0
2022-03-30T23:24:53Z,03/30/22 19:24,7868952,4.809,0.012,479,13.3,60.0,85,13.0
2022-03-30T23:25:53Z,03/30/22 19:25,7868962,4.553,0.022,469,13.2,60.4,85,15.0
2022-03-30T23:26:53Z,03/30/22 19:26,7868972,4.418,0.007000000000000001,476,13.2,60.6,85,15.0
2022-03-30T23:27:53Z,03/30/22 19:27,7868982,4.391,0.019,476,13.2,61.2,85,17.0
2022-03-30T23:28:53Z,03/30/22 19:28,7868992,4.292,0.016,478,13.2,61.5,85,16.0
2022-03-30T23:29:53Z,03/30/22 19:29,7869002,4.142,0.01,485,13.2,61.8,85,16.0
2022-03-30T23:30:53Z,03/30/22 19:30,7869012,4.491,0.015,484,13.2,62.0,85,15.0
2022-03-30T23:31:53Z,03/30/22 19:31,7869022,4.892,0.016,478,13.2,62.4,85,16.0
2022-03-30T23:32:53Z,03/30/22 19:32,7869032,4.5409999999999995,0.028000000000000004,481,13.2,62.7,85,16.0
2022-03-30T23:33:53Z,03/30/22 19:33,7869042,4.411,0.008,489,13.1,63.0,85,16.0
2022-03-30T23:34:53Z,03/30/22 19:34,7869052,4.369,0.008,482,13.1,63.3,85,17.0
2022-03-30T23:35:53Z,03/30/22 19:35,7869062,4.412,0.016,468,13.1,63.5,85,19.0
2022-03-30T23:36:53Z,03/30/22 19:36,7869072,4.678,0.014000000000000002,471,13.1,63.8,85,21.0
2022-03-30T23:37:53Z,03/30/22 19:37,7869082,4.486,0.008,482,13.1,63.8,85,19.0
2022-03-30T23:38:53Z,03/30/22 19:38,7869092,4.392,0.012,481,13.1,64.0,85,19.0
2022-03-30T23:39:53Z,03/30/22 19:39,7869102,4.496,0.016,476,13.1,64.1,85,21.0
2022-03-30T23:40:53Z,03/30/22 19:40,7869112,4.332,0.012,484,13.1,64.3,85,21.0
2022-03-30T23:41:53Z,03/30/22 19:41,7869122,4.353,0.009,477,13.1,64.5,85,20.0
2022-03-30T23:42:53Z,03/30/22 19:42,7869132,5.146,0.02,477,13.0,64.8,85,21.0
2022-03-30T23:43:53Z,03/30/22 19:43,7869142,4.509,0.012,486,13.0,65.0,85,22.0
2022-03-30T23:44:53Z,03/30/22 19:44,7869152,4.727,0.022,480,13.0,65.2,85,21.0
2022-03-30T23:45:53Z,03/30/22 19:45,7869162,4.468,0.011,480,13.0,65.4,85,21.0
2022-03-30T23:46:53Z,03/30/22 19:46,7869172,4.513,0.011,479,13.0,65.7,85,23.0
2022-03-30T23:47:53Z,03/30/22 19:47,7869182,4.4670000000000005,0.006,477,13.0,65.7,85,21.0
2022-03-30T23:48:53Z,03/30/22 19:48,7869192,4.6770000000000005,0.015,482,13.0,65.9,85,22.0
2022-03-30T23:49:53Z,03/30/22 19:49,7869202,4.55,0.013000000000000001,490,12.9,66.1,85,22.0
2022-03-30T23:50:53Z,03/30/22 19:50,7869212,4.534000000000001,0.014000000000000002,479,12.9,66.2,85,22.0
2022-03-30T23:51:53Z,03/30/22 19:51,7869222,4.307,0.013000000000000001,472,12.9,66.4,85,24.0
2022-03-30T23:52:53Z,03/30/22 19:52,7869232,4.397,0.016,480,12.9,66.6,85,22.0
2022-03-30T23:53:53Z,03/30/22 19:53,7869242,4.282,0.008,490,12.9,66.7,85,22.0
2022-03-30T23:54:53Z,03/30/22 19:54,7869252,4.696,0.011,486,12.9,67.0,85,22.0
2022-03-30T23:55:53Z,03/30/22 19:55,7869262,4.622,0.007000000000000001,486,12.9,67.1,85,23.0
2022-03-30T23:56:53Z,03/30/22 19:56,7869272,4.668,0.018,491,12.9,67.2,85,23.0
2022-03-30T23:57:53Z,03/30/22 19:57,7869282,4.817,0.019,486,12.9,67.2,85,20.0
2022-03-30T23:58:53Z,03/30/22 19:58,7869292,5.096,0.019,483,12.9,67.5,85,20.0
2022-03-30T23:59:53Z,03/30/22 19:59,7869302,4.797,0.018,488,12.9,67.5,85,21.0
2022-03-31T00:00:53Z,03/30/22 20:00,7869313,4.588,0.023,490,12.9,67.7,85,23.0
2022-03-31T00:01:53Z,03/30/22 20:01,7869324,4.6579999999999995,0.013000000000000001,486,12.9,67.9,85,21.0
2022-03-31T00:02:53Z,03/30/22 20:02,7869335,4.696,0.026000000000000002,486,12.9,68.2,85,25.0
2022-03-31T00:03:53Z,03/30/22 20:03,7869346,4.5329999999999995,0.009,483,12.9,68.2,85,23.0
2022-03-31T00:04:53Z,03/30/22 20:04,7869357,4.519,0.023,482,12.9,68.4,85,23.0
2022-03-31T00:05:53Z,03/30/22 20:05,7869368,4.602,0.018,491,12.9,68.6,85,25.0
2022-03-31T00:06:53Z,03/30/22 20:06,7869379,4.265,0.013000000000000001,485,12.9,68.7,85,24.0
2022-03-31T00:07:53Z,03/30/22 20:07,7869390,4.984,0.02,483,12.9,68.9,85,24.0
2022-03-31T00:08:53Z,03/30/22 20:08,7869401,4.818,0.020999999999999998,494,12.9,68.9,85,23.0
2022-03-31T00:09:53Z,03/30/22 20:09,7869412,4.8100000000000005,0.014000000000000002,488,12.9,69.3,85,24.0
2022-03-31T00:10:53Z,03/30/22 20:10,7869423,5.18,0.025,496,12.9,69.5,85,24.0
2022-03-31T00:11:53Z,03/30/22 20:11,7869434,4.774,0.017,494,12.9,69.5,85,22.0
2022-03-31T00:12:53Z,03/30/22 20:12,7869445,4.602,0.015,479,12.9,69.8,85,27.0
2022-03-31T00:13:53Z,03/30/22 20:13,7869456,4.494,0.009,482,12.9,70.1,85,25.0
2022-03-31T00:14:53Z,03/30/22 20:14,7869467,4.55,0.016,493,12.9,70.1,85,25.0
2022-03-31T00:15:53Z,03/30/22 20:15,7869478,4.682,0.01,499,12.9,70.0,85,24.0
2022-03-31T00:16:53Z,03/30/22 20:16,7869489,4.787,0.007000000000000001,494,12.9,70.3,85,25.0
2022-03-31T00:17:53Z,03/30/22 20:17,7869500,4.7780000000000005,0.01,496,12.9,70.3,85,26.0
2022-03-31T00:18:53Z,03/30/22 20:18,7869511,4.551,0.015,505,12.9,70.4,85,24.0
2022-03-31T00:19:53Z,03/30/22 20:19,7869522,4.647,0.018,502,13.0,70.5,85,24.0
2022-03-31T00:20:53Z,03/30/22 20:20,7869533,4.587,0.018,491,13.0,70.6,85,24.0
2022-03-31T00:21:53Z,03/30/22 20:21,7869544,4.514,0.022,497,13.0,70.8,85,25.0
2022-03-31T00:22:53Z,03/30/22 20:22,7869555,4.627000000000001,0.023,502,13.0,70.9,85,24.0
2022-03-31T00:23:53Z,03/30/22 20:23,7869566,4.705,0.008,490,13.0,71.0,85,24.0
2022-03-31T00:24:53Z,03/30/22 20:24,7869577,4.953,0.009,494,13.0,71.2,85,27.0
2022-03-31T00:25:53Z,03/30/22 20:25,7869588,4.779999999999999,0.014000000000000002,502,13.0,71.2,85,24.0
2022-03-31T00:26:53Z,03/30/22 20:26,7869599,4.692,0.006,507,13.0,71.1,85,23.0
2022-03-31T00:27:53Z,03/30/22 20:27,7869610,4.85,0.007000000000000001,489,13.0,71.2,85,25.0
2022-03-31T00:28:53Z,03/30/22 20:28,7869621,4.678,0.02,486,13.0,71.4,85,25.0
2022-03-31T00:29:53Z,03/30/22 20:29,7869632,5.0409999999999995,0.02,496,13.1,71.5,85,26.0
2022-03-31T00:30:53Z,03/30/22 20:30,7869643,4.672,0.002,511,13.1,71.7,85,26.0
2022-03-31T00:31:53Z,03/30/22 20:31,7869654,4.288,0.017,496,13.1,71.8,85,25.0
2022-03-31T00:32:53Z,03/30/22 20:32,7869665,4.462,0.008,501,13.1,72.1,85,24.0
2022-03-31T00:33:53Z,03/30/22 20:33,7869676,4.669,0.014000000000000002,506,13.1,72.1,85,25.0
2022-03-31T00:34:53Z,03/30/22 20:34,7869687,4.875,0.015,498,13.1,72.1,85,25.0
2022-03-31T00:35:53Z,03/30/22 20:35,7869698,5.031000000000001,0.009,493,13.1,72.2,85,23.0
2022-03-31T00:36:53Z,03/30/22 20:36,7869709,4.718999999999999,0.015,496,13.1,72.3,85,26.0
2022-03-31T00:37:53Z,03/30/22 20:37,7869720,4.633,0.014000000000000002,503,13.1,72.3,85,25.0
2022-03-31T00:38:53Z,03/30/22 20:38,7869731,4.414,0.011,503,13.1,72.5,85,25.0
2022-03-31T00:39:53Z,03/30/22 20:39,7869742,4.706,0.01,493,13.1,72.6,85,24.0
2022-03-31T00:40:53Z,03/30/22 20:40,7869753,4.479,0.015,504,13.1,72.7,85,25.0
2022-03-31T00:41:53Z,03/30/22 20:41,7869764,4.484,0.016,514,13.2,72.7,85,25.0
2022-03-31T00:42:53Z,03/30/22 20:42,7869775,4.993,0.017,506,13.2,72.8,85,24.0
2022-03-31T00:43:53Z,03/30/22 20:43,7869786,4.743,0.018,499,13.2,72.9,85,24.0
2022-03-31T00:44:53Z,03/30/22 20:44,7869797,4.879,0.008,504,13.2,72.8,85,23.0
2022-03-31T00:45:53Z,03/30/22 20:45,7869808,4.943,0.007000000000000001,504,13.2,73.0,85,23.0
2022-03-31T00:46:53Z,03/30/22 20:46,7869819,4.951,0.011,504,13.2,73.2,85,25.0
2022-03-31T00:47:53Z,03/30/22 20:47,7869830,4.806,0.015,510,13.2,73.1,85,23.0
2022-03-31T00:48:53Z,03/30/22 20:48,7869841,5.061999999999999,0.026000000000000002,506,13.2,73.3,85,26.0
2022-03-31T00:49:53Z,03/30/22 20:49,7869852,4.882,0.011,512,13.2,73.4,85,25.0
2022-03-31T00:50:53Z,03/30/22 20:50,7869863,4.426,0.02,510,13.3,73.5,85,25.0
2022-03-31T00:51:53Z,03/30/22 20:51,7869874,4.326,0.015,507,13.3,73.4,85,23.0
2022-03-31T00:52:53Z,03/30/22 20:52,7869885,4.936,0.008,498,13.3,73.3,85,22.0
2022-03-31T00:53:53Z,03/30/22 20:53,7869896,4.731,0.006,498,13.3,73.5,85,26.0
2022-03-31T00:54:53Z,03/30/22 20:54,7869907,5.2170000000000005,0.024,500,13.3,73.7,85,25.0
2022-03-31T00:55:53Z,03/30/22 20:55,7869918,4.9159999999999995,0.013000000000000001,510,13.3,73.7,85,25.0
2022-03-31T00:56:53Z,03/30/22 20:56,7869929,4.779999999999999,0.023,506,13.3,73.8,85,24.0
2022-03-31T00:57:53Z,03/30/22 20:57,7869940,4.711,0.014000000000000002,500,13.3,73.8,85,25.0
2022-03-31T00:58:53Z,03/30/22 20:58,7869951,4.588,0.014000000000000002,505,13.3,73.9,85,25.0
2022-03-31T00:59:53Z,03/30/22 20:59,7869962,4.84,0.017,505,13.3,74.0,85,22.0
2022-03-31T01:00:53Z,03/30/22 21:00,7869973,4.885,0.002,514,13.3,74.2,85,25.0
2022-03-31T01:01:53Z,03/30/22 21:01,7869984,4.965,0.012,498,13.3,74.2,85,25.0
2022-03-31T01:02:53Z,03/30/22 21:02,7869995,4.897,0.011,506,13.3,74.2,85,23.0
2022-03-31T01:03:53Z,03/30/22 21:03,7870006,4.923,0.012,510,13.3,74.3,85,26.0
2022-03-31T01:04:53Z,03/30/22 21:04,7870017,4.759,0.011,502,13.3,74.5,85,27.0
2022-03-31T01:05:53Z,03/30/22 21:05,7870028,4.559,0.01,511,13.3,74.5,85,26.0
2022-03-31T01:06:53Z,03/30/22 21:06,7870039,4.939,0.017,508,13.3,74.6,85,26.0
2022-03-31T01:07:53Z,03/30/22 21:07,7870050,4.612,0.017,500,13.3,74.6,85,25.0
2022-03-31T01:08:53Z,03/30/22 21:08,7870061,4.259,0.016,505,13.3,74.8,85,27.0
2022-03-31T01:09:53Z,03/30/22 21:09,7870072,4.589,0.01,514,13.3,74.9,85,25.0
2022-03-31T01:10:53Z,03/30/22 21:10,7870083,4.558,0.011,515,13.4,75.1,85,26.0
2022-03-31T01:11:53Z,03/30/22 21:11,7870094,4.174,0.011,523,13.4,75.1,85,26.0
2022-03-31T01:12:53Z,03/30/22 21:12,7870105,4.434,0.012,511,13.4,75.2,85,27.0
2022-03-31T01:13:53Z,03/30/22 21:13,7870116,4.399,0.02,515,13.4,75.3,85,25.0
2022-03-31T01:14:53Z,03/30/22 21:14,7870127,4.371,0.006,526,13.4,75.3,85,27.0
2022-03-31T01:15:53Z,03/30/22 21:15,7870138,4.522,0.011,517,13.4,75.3,85,27.0
2022-03-31T01:16:53Z,03/30/22 21:16,7870149,4.253,0.007000000000000001,521,13.4,75.4,85,27.0
2022-03-31T01:17:53Z,03/30/22 21:17,7870160,4.365,0.009,512,13.4,75.5,85,27.0
2022-03-31T01:18:53Z,03/30/22 21:18,7870171,4.144,0.014000000000000002,517,13.4,75.8,85,27.0
2022-03-31T01:19:53Z,03/30/22 21:19,7870182,4.1579999999999995,0.015,523,13.5,75.8,85,29.0
2022-03-31T01:20:53Z,03/30/22 21:20,7870193,4.525,0.011,517,13.5,75.9,85,28.0
2022-03-31T01:21:53Z,03/30/22 21:21,7870204,4.245,0.012,515,13.5,76.0,85,25.0
2022-03-31T01:22:53Z,03/30/22 21:22,7870215,4.143,0.020999999999999998,525,13.6,76.1,85,27.0
2022-03-31T01:23:53Z,03/30/22 21:23,7870226,4.172,0.013000000000000001,525,13.6,76.1,85,28.0
2022-03-31T01:24:53Z,03/30/22 21:24,7870237,4.159000000000001,0.008,525,13.6,76.1,85,28.0
2022-03-31T01:25:53Z,03/30/22 21:25,7870248,3.7960000000000003,0.017,520,13.6,76.1,85,24.0
2022-03-31T01:26:53Z,03/30/22 21:26,7870259,3.974,0.001,516,13.6,76.1,85,27.0
2022-03-31T01:27:53Z,03/30/22 21:27,7870270,4.008,0.015,516,13.7,76.3,85,29.0
2022-03-31T01:28:53Z,03/30/22 21:28,7870281,3.851,0.01,520,13.7,76.3,85,27.0
2022-03-31T01:29:53Z,03/30/22 21:29,7870292,3.7969999999999997,0.01,524,13.7,76.3,85,28.0
2022-03-31T01:30:53Z,03/30/22 21:30,7870303,3.836,0.013000000000000001,517,13.7,76.4,85,29.0
2022-03-31T01:31:53Z,03/30/22 21:31,7870314,3.761,0.004,514,13.7,76.5,85,28.0
2022-03-31T01:32:53Z,03/30/22 21:32,7870325,3.6060000000000003,0.015,522,13.8,76.6,85,30.0
2022-03-31T01:33:53Z,03/30/22 21:33,7870336,3.6710000000000003,0.007000000000000001,518,13.8,76.6,85,29.0
2022-03-31T01:34:53Z,03/30/22 21:34,7870347,3.376,0.011,524,13.8,76.7,85,28.0
2022-03-31T01:35:53Z,03/30/22 21:35,7870358,3.5700000000000003,0.009,518,13.8,76.7,85,31.0
2022-03-31T01:36:53Z,03/30/22 21:36,7870369,3.688,0.002,515,13.8,76.9,85,31.0
2022-03-31T01:37:53Z,03/30/22 21:37,7870380,3.3920000000000003,0.007000000000000001,521,13.9,76.8,85,30.0
2022-03-31T01:38:53Z,03/30/22 21:38,7870391,3.5140000000000002,0.008,523,13.9,76.8,85,28.0
2022-03-31T01:39:53Z,03/30/22 21:39,7870402,3.489,0.006,519,13.9,76.9,85,29.0
2022-03-31T01:40:53Z,03/30/22 21:40,7870413,3.435,0.009,530,13.9,77.0,85,31.0
2022-03-31T01:41:53Z,03/30/22 21:41,7870424,3.793,0.017,527,14.0,77.0,85,27.0
2022-03-31T01:42:53Z,03/30/22 21:42,7870435,3.344,0.007000000000000001,529,14.0,77.0,85,29.0
2022-03-31T01:43:53Z,03/30/22 21:43,7870446,3.215,0.01,531,14.0,76.9,85,28.0
2022-03-31T01:44:53Z,03/30/22 21:44,7870457,3.0010000000000003,0.005,518,14.0,76.9,85,27.0
2022-03-31T01:45:53Z,03/30/22 21:45,7870468,3.084,0.009,529,14.0,76.9,85,27.0
2022-03-31T01:46:53Z,03/30/22 21:46,7870479,3.182,0.01,529,14.1,77.0,85,30.0
2022-03-31T01:47:53Z,03/30/22 21:47,7870490,3.164,0.004,534,14.1,77.0,85,31.0
2022-03-31T01:48:53Z,03/30/22 21:48,7870501,3.442,0.005,531,14.1,77.2,85,32.0
2022-03-31T01:49:53Z,03/30/22 21:49,7870512,3.059,0.004,532,14.1,77.3,85,32.0
2022-03-31T01:50:53Z,03/30/22 21:50,7870523,3.308,0.007000000000000001,529,14.1,77.3,85,31.0
2022-03-31T01:51:53Z,03/30/22 21:51,7870534,3.313,0.005,531,14.1,77.3,85,30.0
2022-03-31T01:52:53Z,03/30/22 21:52,7870545,3.158,0.004,538,14.1,77.2,85,28.0
2022-03-31T01:53:53Z,03/30/22 21:53,7870556,2.95,0.008,526,14.1,77.2,85,29.0
2022-03-31T01:54:53Z,03/30/22 21:54,7870567,2.93,0.004,527,14.1,77.1,85,28.0
2022-03-31T01:55:53Z,03/30/22 21:55,7870578,3.119,0.004,530,14.1,77.1,85,28.0
2022-03-31T01:56:53Z,03/30/22 21:56,7870589,3.2590000000000003,0.005,525,14.1,77.2,85,30.0
2022-03-31T01:57:53Z,03/30/22 21:57,7870600,2.7600000000000002,0.009,528,14.1,77.2,85,30.0
2022-03-31T01:58:53Z,03/30/22 21:58,7870611,3.065,0.007000000000000001,525,14.2,77.3,85,30.0
2022-03-31T01:59:53Z,03/30/22 21:59,7870622,2.984,0.01,530,14.2,77.3,85,30.0
2022-03-31T02:00:53Z,03/30/22 22:00,7870633,2.807,0.007000000000000001,530,14.2,77.3,85,30.0
2022-03-31T02:01:53Z,03/30/22 22:01,7870644,3.101,0.013000000000000001,534,14.2,77.3,85,29.0
2022-03-31T02:02:53Z,03/30/22 22:02,7870655,3.056,0.007000000000000001,522,14.2,77.3,85,31.0
2022-03-31T02:03:53Z,03/30/22 22:03,7870666,2.893,0.008,527,14.2,77.5,85,31.0
2022-03-31T02:04:53Z,03/30/22 22:04,7870677,2.9530000000000003,0.005,530,14.2,77.3,85,28.0
2022-03-31T02:05:53Z,03/30/22 22:05,7870688,2.965,0.005,537,14.3,77.3,85,28.0
2022-03-31T12:59:47Z,03/31/22 08:59,7872662,0.024,0.0,1004,14.8,76.8,85,0.0
2022-03-31T13:00:47Z,03/31/22 09:00,7872669,0.092,0.001,1000,14.9,74.9,85,0.0
2022-03-31T13:01:47Z,03/31/22 09:01,7872677,0.02,0.001,989,15.2,73.4,85,0.0
2022-03-31T13:02:47Z,03/31/22 09:02,7872685,0.159,0.0,950,15.5,72.0,85,0.0
2022-03-31T13:03:47Z,03/31/22 09:03,7872693,0.027000000000000003,0.0,955,15.7,70.7,85,0.0
2022-03-31T13:04:47Z,03/31/22 09:04,7872701,0.036,0.0,1071,16.0,69.9,85,0.0
2022-03-31T13:05:47Z,03/31/22 09:05,7872709,0.027000000000000003,0.0,1229,16.4,69.2,85,0.0
2022-03-31T13:06:47Z,03/31/22 09:06,7872717,0.003,0.0,1290,16.6,68.3,85,0.0
2022-03-31T13:07:47Z,03/31/22 09:07,7872725,0.027000000000000003,0.0,1324,17.0,66.9,85,0.0
2022-03-31T13:08:47Z,03/31/22 09:08,7872733,0.016,0.002,1231,17.3,65.6,85,0.0
2022-03-31T13:09:47Z,03/31/22 09:09,7872741,0.039,0.0,1183,17.6,64.7,85,0.0
2022-03-31T13:10:47Z,03/31/22 09:10,7872749,0.020999999999999998,0.0,1190,17.9,63.6,85,0.0
2022-03-31T13:11:47Z,03/31/22 09:11,7872757,0.078,0.0,1169,18.1,62.5,85,0.0
2022-03-31T13:12:47Z,03/31/22 09:12,7872765,0.027000000000000003,0.0,1140,18.4,61.3,85,0.0
2022-03-31T13:13:47Z,03/31/22 09:13,7872773,0.024,0.0,1110,18.6,60.0,85,0.0
2022-03-31T13:14:47Z,03/31/22 09:14,7872781,0.015,0.0,1102,18.8,59.0,85,0.0
2022-03-31T13:15:47Z,03/31/22 09:15,7872789,0.05,0.001,1129,19.0,58.1,85,0.0
2022-03-31T13:16:47Z,03/31/22 09:16,7872797,0.017,0.001,1097,19.2,57.0,85,0.0
2022-03-31T13:17:47Z,03/31/22 09:17,7872805,0.027000000000000003,0.0,1075,19.4,55.9,85,0.0
2022-03-31T13:18:47Z,03/31/22 09:18,7872813,0.027000000000000003,0.0,1028,19.5,55.0,85,1.0
2022-03-31T13:19:47Z,03/31/22 09:19,7872821,0.054000000000000006,0.0,1012,19.7,54.1,85,1.0
2022-03-31T13:20:47Z,03/31/22 09:20,7872829,0.009,0.0,994,19.7,53.3,85,1.0
2022-03-31T13:21:47Z,03/31/22 09:21,7872837,0.008,0.001,997,19.9,52.6,85,2.0
2022-03-31T13:22:47Z,03/31/22 09:22,7872845,0.045,0.0,976,20.0,51.8,85,2.0
2022-03-31T13:23:47Z,03/31/22 09:23,7872853,0.027000000000000003,0.0,960,20.1,51.1,85,3.0
2022-03-31T13:24:47Z,03/31/22 09:24,7872861,0.048,0.0,946,20.3,50.6,85,2.0
2022-03-31T13:25:47Z,03/31/22 09:25,7872869,0.009,0.0,943,20.4,50.0,85,2.0
2022-03-31T13:26:47Z,03/31/22 09:26,7872877,0.024,0.0,950,20.5,49.4,85,3.0
2022-03-31T13:27:47Z,03/31/22 09:27,7872885,0.006,0.0,965,20.5,48.9,85,2.0
2022-03-31T13:28:47Z,03/31/22 09:28,7872893,0.006,0.0,974,20.7,48.4,85,2.0
2022-03-31T13:29:47Z,03/31/22 09:29,7872901,0.036,0.0,977,20.8,47.8,85,3.0
2022-03-31T13:30:47Z,03/31/22 09:30,7872909,0.009,0.0,976,20.9,47.4,85,4.0
2022-03-31T13:31:47Z,03/31/22 09:31,7872917,0.027000000000000003,0.0,999,21.0,46.9,85,3.0
2022-03-31T13:32:47Z,03/31/22 09:32,7872925,0.027000000000000003,0.0,985,21.1,46.2,85,5.0
2022-03-31T13:33:47Z,03/31/22 09:33,7872933,0.009,0.0,974,21.2,45.8,85,5.0
2022-03-31T13:34:47Z,03/31/22 09:34,7872941,0.02,0.001,984,21.2,45.5,85,4.0
2022-03-31T13:35:47Z,03/31/22 09:35,7872949,0.006,0.0,997,21.2,45.1,85,4.0
2022-03-31T13:36:47Z,03/31/22 09:36,7872957,0.075,0.0,1000,21.3,44.6,85,4.0
2022-03-31T13:37:47Z,03/31/22 09:37,7872965,0.011,0.001,1002,21.3,44.3,85,5.0
2022-03-31T13:38:47Z,03/31/22 09:38,7872973,0.03,0.0,1000,21.4,43.9,85,5.0
2022-03-31T13:39:47Z,03/31/22 09:39,7872981,0.10400000000000001,0.001,998,21.4,43.6,85,5.0
2022-03-31T13:40:47Z,03/31/22 09:40,7872989,0.03,0.0,999,21.4,43.3,85,3.0
2022-03-31T13:41:47Z,03/31/22 09:41,7872997,0.024,0.0,984,21.5,42.9,85,0.0
2022-03-31T13:42:47Z,03/31/22 09:42,7873005,0.020999999999999998,0.0,954,21.5,42.6,85,0.0
2022-03-31T13:43:47Z,03/31/22 09:43,7873013,0.006,0.0,974,21.6,42.3,85,0.0
2022-03-31T13:44:47Z,03/31/22 09:44,7873021,0.038,0.001,983,21.6,42.1,85,0.0
2022-03-31T13:45:47Z,03/31/22 09:45,7873029,0.036,0.0,992,21.6,41.9,85,0.0
2022-03-31T13:46:47Z,03/31/22 09:46,7873037,0.086,0.001,1013,21.7,41.7,85,0.0
2022-03-31T13:47:47Z,03/31/22 09:47,7873045,0.06899999999999999,0.0,1054,21.8,41.7,85,0.0
2022-03-31T13:48:47Z,03/31/22 09:48,7873053,0.018,0.0,1085,21.8,41.5,85,0.0
2022-03-31T13:49:47Z,03/31/22 09:49,7873061,0.053000000000000005,0.001,1095,21.8,41.3,85,0.0
2022-03-31T13:50:47Z,03/31/22 09:50,7873069,0.02,0.001,1123,21.9,41.3,85,0.0
2022-03-31T13:51:47Z,03/31/22 09:51,7873077,0.020999999999999998,0.0,1185,22.0,41.5,85,0.0
2022-03-31T13:52:47Z,03/31/22 09:52,7873085,0.054000000000000006,0.0,1214,22.0,41.7,85,0.0
2022-03-31T13:53:47Z,03/31/22 09:53,7873093,0.018,0.0,1199,22.0,41.3,85,0.0
2022-03-31T13:54:47Z,03/31/22 09:54,7873101,0.048,0.0,1353,22.1,41.7,85,0.0
2022-03-31T13:55:47Z,03/31/22 09:55,7873109,0.028999999999999998,0.001,1350,22.2,41.9,85,0.0
2022-03-31T13:56:47Z,03/31/22 09:56,7873117,0.051000000000000004,0.0,1292,22.3,41.3,85,0.0
2022-03-31T13:57:47Z,03/31/22 09:57,7873125,0.018,0.0,1331,22.5,41.2,85,0.0
2022-03-31T13:58:47Z,03/31/22 09:58,7873133,0.048,0.0,1347,22.5,40.9,85,0.0
2022-03-31T13:59:47Z,03/31/22 09:59,7873140,0.012,0.0,1313,22.6,40.8,85,0.0
2022-03-31T14:00:47Z,03/31/22 10:00,7873148,0.006,0.0,1618,22.7,41.9,85,0.0
2022-03-31T14:01:47Z,03/31/22 10:01,7873156,0.075,0.0,1937,22.8,41.5,85,0.0
2022-03-31T14:02:47Z,03/31/22 10:02,7873164,0.023,0.001,1977,22.9,41.2,85,0.0
2022-03-31T14:03:47Z,03/31/22 10:03,7873172,0.027000000000000003,0.0,1625,23.0,40.5,85,0.0
2022-03-31T14:04:47Z,03/31/22 10:04,7873180,0.039,0.0,1451,23.0,40.0,85,0.0
2022-03-31T14:05:47Z,03/31/22 10:05,7873188,0.027000000000000003,0.0,1385,23.0,39.9,85,0.0
2022-03-31T14:06:47Z,03/31/22 10:06,7873196,0.033,0.0,1368,23.1,39.7,85,0.0
2022-03-31T14:07:47Z,03/31/22 10:07,7873204,0.027000000000000003,0.0,1328,23.1,39.2,85,0.0
2022-03-31T14:08:47Z,03/31/22 10:08,7873212,0.020999999999999998,0.0,1291,23.1,39.0,85,0.0
2022-03-31T14:09:47Z,03/31/22 10:09,7873220,0.037,0.002,1308,23.1,38.8,85,0.0
2022-03-31T14:10:47Z,03/31/22 10:10,7873228,0.015,0.0,1297,23.0,38.7,85,0.0
2022-03-31T14:11:47Z,03/31/22 10:11,7873236,0.018,0.0,1308,23.0,38.5,85,0.0
2022-03-31T14:12:47Z,03/31/22 10:12,7873244,0.006,0.0,1308,23.0,38.5,85,0.0
2022-03-31T14:13:47Z,03/31/22 10:13,7873252,0.012,0.0,1309,23.0,38.3,85,0.0
2022-03-31T14:14:47Z,03/31/22 10:14,7873259,0.006,0.0,1325,23.0,38.2,85,0.0
2022-03-31T14:15:47Z,03/31/22 10:15,7873268,0.024,0.0,1309,22.9,38.1,85,0.0
2022-03-31T14:16:47Z,03/31/22 10:16,7873276,0.075,0.0,1309,22.9,38.1,85,0.0
2022-03-31T14:17:47Z,03/31/22 10:17,7873284,0.006,0.0,1310,22.8,38.0,85,0.0
2022-03-31T14:18:47Z,03/31/22 10:18,7873292,0.059,0.001,1297,22.8,37.8,85,0.0
2022-03-31T14:19:47Z,03/31/22 10:19,7873300,0.036,0.0,1299,22.8,37.8,85,0.0
2022-03-31T14:20:47Z,03/31/22 10:20,7873308,0.031,0.002,1282,22.7,37.7,85,0.0
2022-03-31T14:21:47Z,03/31/22 10:21,7873316,0.018,0.0,1305,22.7,37.6,85,0.0
2022-03-31T14:22:47Z,03/31/22 10:22,7873324,0.012,0.0,1294,22.6,37.5,85,0.0
2022-03-31T14:23:47Z,03/31/22 10:23,7873331,0.020999999999999998,0.0,1284,22.6,37.5,85,0.0
2022-03-31T14:24:47Z,03/31/22 10:24,7873339,0.034999999999999996,0.001,1282,22.6,37.4,85,0.0
2022-03-31T14:25:47Z,03/31/22 10:25,7873347,0.020999999999999998,0.0,1266,22.6,37.4,85,0.0
2022-03-31T14:26:47Z,03/31/22 10:26,7873355,0.044,0.001,1289,22.5,37.4,85,0.0
2022-03-31T14:27:47Z,03/31/22 10:27,7873363,0.034999999999999996,0.001,1294,22.5,37.4,85,0.0
2022-03-31T14:28:47Z,03/31/22 10:28,7873371,0.03,0.0,1297,22.4,37.4,85,0.0
2022-03-31T14:29:47Z,03/31/22 10:29,7873379,0.006,0.0,1316,22.4,37.4,85,0.0
2022-03-31T14:30:47Z,03/31/22 10:30,7873387,0.048,0.0,1299,22.4,37.4,85,0.0
2022-03-31T14:31:47Z,03/31/22 10:31,7873395,0.008,0.001,1291,22.3,37.4,85,0.0
2022-03-31T14:32:47Z,03/31/22 10:32,7873403,0.025,0.002,1295,22.3,37.3,85,0.0
2022-03-31T14:33:47Z,03/31/22 10:33,7873411,0.03,0.0,1271,22.3,37.2,85,0.0
2022-03-31T14:34:47Z,03/31/22 10:34,7873419,0.093,0.0,1261,22.3,37.1,85,0.0
2022-03-31T14:35:47Z,03/31/22 10:35,7873427,0.006,0.0,1254,22.3,37.0,85,0.0
2022-03-31T14:36:47Z,03/31/22 10:36,7873434,0.020999999999999998,0.0,1222,22.3,36.9,85,0.0
2022-03-31T14:37:47Z,03/31/22 10:37,7873441,0.024,0.0,1272,22.3,37.2,85,0.0
2022-03-31T14:38:47Z,03/31/22 10:38,7873449,0.024,0.0,1306,22.3,37.2,85,0.0
2022-03-31T14:39:47Z,03/31/22 10:39,7873457,0.045,0.0,1291,22.3,37.2,85,0.0
2022-03-31T14:40:47Z,03/31/22 10:40,7873465,0.018,0.0,1311,22.3,37.2,85,0.0
2022-03-31T14:41:47Z,03/31/22 10:41,7873473,0.024,0.0,1300,22.3,37.2,85,0.0
2022-03-31T14:42:47Z,03/31/22 10:42,7873481,0.038,0.001,1326,22.4,37.1,85,0.0
2022-03-31T14:43:47Z,03/31/22 10:43,7873489,0.014000000000000002,0.001,1339,22.4,37.1,85,0.0
2022-03-31T14:44:48Z,03/31/22 10:44,7873497,0.028999999999999998,0.001,1325,22.4,37.0,85,0.0
2022-03-31T14:45:47Z,03/31/22 10:45,7873505,0.015,0.0,1325,22.5,36.8,85,0.0
2022-03-31T14:49:07Z,03/31/22 10:49,7873518,0.10500000000000001,0.0,878,22.4,35.0,85,0.0
2022-03-31T14:50:07Z,03/31/22 10:50,7873529,0.063,0.0,692,22.0,34.4,85,16.0
2022-03-31T14:52:11Z,03/31/22 10:52,7873545,0.096,0.0,341,20.8,34.0,85,26.0
2022-03-31T14:53:11Z,03/31/22 10:53,7873556,0.072,0.0,316,20.1,34.1,85,27.0
2022-03-31T14:54:11Z,03/31/22 10:54,7873567,0.036,0.0,315,19.4,34.4,85,29.0
2022-03-31T14:55:11Z,03/31/22 10:55,7873578,0.066,0.0,307,18.6,34.8,85,31.0
2022-03-31T14:56:11Z,03/31/22 10:56,7873589,0.041999999999999996,0.0,308,17.9,35.1,85,31.0
2022-03-31T14:57:11Z,03/31/22 10:57,7873600,0.078,0.0,294,17.2,35.6,85,33.0
2022-03-31T14:58:11Z,03/31/22 10:58,7873611,0.041999999999999996,0.0,277,16.4,36.3,85,33.0
2022-03-31T14:59:11Z,03/31/22 10:59,7873622,0.024,0.0,270,15.8,36.9,85,33.0
2022-03-31T15:00:11Z,03/31/22 11:00,7873633,0.12,0.0,271,15.2,37.5,85,33.0